STARLINK-11492, 62224

Orbit data source: Space-Track

STARLINK-11492, 62224 is a payload satellite owned by SpaceX/Seattle (US) in LEO that was launched on Thu, 05 Dec 2024 UTC via an FALCON 9 launch vehicle from the Air Force Western Test Range (AFWTR). Payload-class satellites include a variety of spacecraft equipped with specific instruments for various scientific and technological missions. These include communications satellites like Starlink; space stations such as the ISS; scientific satellites like the Hubble; Earth observation satellites from companies like Planet Labs, Umbra, and HawkEye 360; GPS; miniature CubeSats for education and research; and military/defense satellites.

Loading next visibility...
Identifier
62224, 2024-231G
Orbit
LEO
Country
Flag of USUS
Related business
Manufacturer
SpaceX/Seattle
Mission
Operational Commercial Communications
Bus & Motor
STARLINK V2MD, Unknown motor
Mass
960 kg wet, ~910 kg dry
Launch date (UTC)
2024-12-05 (2 years ago)
Launch vehicle
FALCON 9
Launch site
Air Force Western Test Range (AFWTR)
Object type
Payload
Rocket body
Debris
Shape & HBR
Box + 2 Pan, 18.1 m
Radar Cross Section
36.964 m², Large (>1 m²)

Expand to show TLE details & history
Last TLE update: 1 day ago

TLE from 1 day ago
0 STARLINK-11492
1 62224U 24231G   26170.78589025  .00159759  00000-0  12963-2 0  9997
2 62224  53.1569 318.2156 0000853  97.3926 262.7189 15.69745927 89440
Epoch: 2026-06-19T18:51Z
TLE epoch observation values (Epoch: 2026-06-19T18:51:40.917Z)
Latitude
-0.00002°
Longitude
127.28523°
Altitude
360.612 km
Speed
7.694 km/s
True Right ascension
21h 12m 51s
True Declination
0° 00' 00"
Sunlit
Object was in full shadow at epoch
Visualization orbit readout
Latitude
Unknown
Longitude
Unknown
Altitude
Unknown
Speed
Unknown
Apparent Right ascension
Unknown
Apparent Declination
Unknown
Sunlit
N/A
Visualization observer readout
Local Sidereal Time
07:24:33
Azimuth
Unknown
Elevation
Unknown
Doppler factor
Unknown
Orbital elements
Apogee altitude
360.46 km
Perigee altitude
359.31 km
Semi-major axis
6,738.022 km
Eccentricity
0.00009
Inclination
53.1569°
RAAN
318.2156°
Arg. of periapsis
97.3926°
True anomaly
262.7092°
Mean anomaly
262.7189°
Eccentric anomaly
262.71405°
Mean motion
3.92414 °/min
Orbital period
91.74 mins
BSTAR
0.0012963
Loading maneuver chart data...
Computing Atmospheric mass density...
Loading historical data...
Loading historical data...
Loading historical data...
Loading historical data...
Loading historical data...
Loading historical data...
Loading historical data...

Documentation

Showing up to 5 results
|